Change the Weather History Date:

Wednesday, May 22, 2013

  Actual Average (KGUC) Record (KGUC)
Temperature  
Mean Temperature 57 °F -  
Max Temperature 75 °F 64 °F 80 °F (2005)
Min Temperature 39 °F 32 °F 24 °F (2002)
Degree Days  
Heating Degree Days 8    
Growing Degree Days 7 (Base 50)    
Moisture  
Dew Point 27 °F    
Average Humidity 35    
Maximum Humidity 66    
Minimum Humidity 12    
Precipitation  
Precipitation 0.00 in - - ()
Sea Level Pressure  
Sea Level Pressure 30.11 in    
Wind  
Wind Speed 4 mph (SSW)    
Max Wind Speed 17 mph    
Max Gust Speed 29 mph    
Visibility 10 miles    
Events      
Averages and records for this station are not official NWS values.
T = Trace of Precipitation, MM = Missing Value Source: NWS Daily Summary

Daily Weather History Graph

Daily Weather History Graph

Search for Another Location

Airport or City:

Trip Planner

Search our weather history database for the weather conditions in past years. The results will help you decide how hot, cold, wet, or windy it might be!

Date:

Astronomy

May. 22, 2013 Rise Set
Actual Time 5:46 AM MDT 8:15 PM MDT
Civil Twilight 5:16 AM MDT 8:45 PM MDT
Nautical Twilight 4:38 AM MDT 9:23 PM MDT
Astronomical Twilight 3:57 AM MDT 10:05 PM MDT
Moon 5:42 PM MDT (5/22) 3:50 AM MDT (5/22)
Length of Visible Light 15h 29m
Length of Day
14h 28m
Waxing Gibbous, 92% of the Moon is Illuminated
May 22
Waxing Gibbous
May 24
Full
May 31
Last Quarter
Jun 8
New
Jun 16
First Quarter

Hourly Weather History & Observations

Time (MDT) Temp. Windchill Dew Point Humidity Pressure Visibility Wind Dir Wind Speed Gust Speed Precip Events Conditions
12:15 AM 48.0 °F - 26.6 °F 43% 30.14 in 10.0 mi SSW 4.6 mph - N/A   Clear
12:35 AM 47.5 °F - 27.5 °F 46% 30.15 in 10.0 mi SSW 8.1 mph - N/A   Clear
12:55 AM 48.0 °F - 27.0 °F 44% 30.14 in 10.0 mi SSW 3.5 mph - N/A   Clear
1:15 AM 48.4 °F - 28.6 °F 46% 30.14 in 10.0 mi SSW 5.8 mph - N/A   Clear
1:35 AM 48.6 °F - 29.3 °F 47% 30.14 in 10.0 mi Calm Calm - N/A   Clear
1:55 AM 46.8 °F - 28.9 °F 50% 30.14 in 10.0 mi Calm Calm - N/A   Clear
2:15 AM 44.1 °F 41.5 °F 28.4 °F 54% 30.14 in 10.0 mi WSW 4.6 mph - N/A   Clear
2:35 AM 43.0 °F - 28.2 °F 56% 30.13 in 10.0 mi Calm Calm - N/A   Clear
2:55 AM 42.1 °F - 28.4 °F 58% 30.13 in 10.0 mi Calm Calm - N/A   Clear
3:15 AM 42.6 °F 40.9 °F 28.4 °F 57% 30.14 in 10.0 mi NW 3.5 mph - N/A   Clear
3:35 AM 43.7 °F 41.1 °F 28.0 °F 54% 30.14 in 10.0 mi NNW 4.6 mph - N/A   Clear
3:55 AM 43.7 °F - 28.0 °F 54% 30.14 in 10.0 mi Calm Calm - N/A   Clear
4:15 AM 41.5 °F - 28.4 °F 60% 30.14 in 10.0 mi Calm Calm - N/A   Clear
4:35 AM 40.3 °F 37.1 °F 28.8 °F 63% 30.14 in 10.0 mi West 4.6 mph - N/A   Clear
4:55 AM 41.0 °F - 28.6 °F 61% 30.14 in 10.0 mi Calm Calm - N/A   Clear
5:15 AM 40.5 °F 37.3 °F 28.9 °F 64% 30.14 in 10.0 mi WNW 4.6 mph - N/A   Clear
5:35 AM 39.4 °F - 28.6 °F 65% 30.14 in 10.0 mi Calm Calm - N/A   Clear
5:55 AM 39.0 °F - 28.4 °F 66% 30.15 in 10.0 mi Calm Calm - N/A   Clear
6:15 AM 39.4 °F 36.1 °F 28.8 °F 66% 30.15 in 10.0 mi NW 4.6 mph - N/A   Clear
6:35 AM 41.2 °F 39.2 °F 29.1 °F 62% 30.15 in 10.0 mi NW 3.5 mph - N/A   Clear
6:55 AM 42.1 °F 40.2 °F 29.3 °F 61% 30.16 in 10.0 mi NNW 3.5 mph - N/A   Clear
7:15 AM 42.4 °F - 30.2 °F 62% 30.16 in 10.0 mi Calm Calm - N/A   Clear
7:35 AM 43.3 °F 40.7 °F 29.7 °F 59% 30.17 in 10.0 mi NNW 4.6 mph - N/A   Clear
7:55 AM 45.7 °F 44.4 °F 30.0 °F 54% 30.17 in 10.0 mi North 3.5 mph - N/A   Clear
8:15 AM 47.5 °F - 30.0 °F 51% 30.17 in 10.0 mi Calm Calm - N/A   Clear
8:35 AM 48.7 °F - 30.7 °F 50% 30.17 in 10.0 mi Calm Calm - N/A   Clear
8:55 AM 51.3 °F - 31.3 °F 46% 30.16 in 10.0 mi Calm Calm - N/A   Clear
9:15 AM 51.6 °F - 30.7 °F 45% 30.15 in 10.0 mi Calm Calm - N/A   Clear
9:35 AM 54.5 °F - 30.6 °F 40% 30.15 in 10.0 mi Calm Calm - N/A   Clear
9:55 AM 56.5 °F - 30.4 °F 37% 30.14 in 10.0 mi Calm Calm - N/A   Clear
10:15 AM 58.8 °F - 31.5 °F 36% 30.13 in 10.0 mi ESE 3.5 mph - N/A   Clear
10:35 AM 61.7 °F - 30.7 °F 31% 30.13 in 10.0 mi Calm Calm - N/A   Clear
10:55 AM 63.1 °F - 30.6 °F 29% 30.12 in 10.0 mi East 3.5 mph - N/A   Clear
11:15 AM 65.5 °F - 29.3 °F 26% 30.10 in 10.0 mi Calm Calm - N/A   Clear
11:35 AM 69.1 °F - 24.3 °F 19% 30.10 in 10.0 mi Calm Calm - N/A   Scattered Clouds
11:55 AM 68.5 °F - 23.2 °F 18% 30.09 in 10.0 mi West 5.8 mph - N/A   Scattered Clouds
12:15 PM 69.8 °F - 23.0 °F 17% 30.09 in 10.0 mi SW 8.1 mph - N/A   Scattered Clouds
12:35 PM 70.5 °F - 21.6 °F 16% 30.08 in 10.0 mi Calm Calm - N/A   Scattered Clouds
12:55 PM 72.0 °F - 22.3 °F 15% 30.07 in 10.0 mi East 6.9 mph - N/A   Scattered Clouds
1:15 PM 72.9 °F - 22.8 °F 15% 30.06 in 10.0 mi ESE 5.8 mph - N/A   Scattered Clouds
1:35 PM 72.1 °F - 23.9 °F 16% 30.06 in 10.0 mi ESE 8.1 mph - N/A   Scattered Clouds
1:55 PM 75.0 °F - 21.6 °F 14% 30.05 in 10.0 mi SSE 9.2 mph - N/A   Scattered Clouds
2:15 PM 75.6 °F - 19.9 °F 12% 30.04 in 10.0 mi SSE 11.5 mph 19.6 mph N/A   Scattered Clouds
2:35 PM 73.9 °F - 19.2 °F 13% 30.04 in 10.0 mi SSE 10.4 mph 16.1 mph N/A   Scattered Clouds
2:55 PM 74.7 °F - 18.7 °F 12% 30.04 in 10.0 mi South 11.5 mph 19.6 mph N/A   Mostly Cloudy
3:15 PM 72.5 °F - 19.2 °F 13% 30.03 in 10.0 mi SSE 11.5 mph 19.6 mph N/A   Mostly Cloudy
3:35 PM 72.7 °F - 21.2 °F 14% 30.02 in 10.0 mi South 13.8 mph 17.3 mph N/A   Overcast
3:55 PM 75.0 °F - 19.8 °F 13% 30.02 in 10.0 mi South 16.1 mph 24.2 mph N/A   Overcast
4:15 PM 72.3 °F - 19.6 °F 14% 30.02 in 10.0 mi South 9.2 mph 17.3 mph N/A   Mostly Cloudy
4:35 PM 71.6 °F - 21.6 °F 15% 30.03 in 10.0 mi WSW 11.5 mph 20.7 mph N/A   Mostly Cloudy
4:55 PM 70.2 °F - 24.4 °F 18% 30.04 in 10.0 mi West 17.3 mph 20.7 mph N/A   Overcast
5:15 PM 70.2 °F - 24.1 °F 18% 30.06 in 10.0 mi West 16.1 mph 28.8 mph N/A   Overcast
5:35 PM 70.7 °F - 24.3 °F 18% 30.05 in 10.0 mi SSW 3.5 mph - N/A   Mostly Cloudy
5:55 PM 69.1 °F - 26.6 °F 20% 30.05 in 10.0 mi WNW 9.2 mph - N/A   Clear
6:15 PM 68.7 °F - 26.8 °F 21% 30.05 in 10.0 mi WNW 6.9 mph - N/A   Mostly Cloudy
6:35 PM 68.0 °F - 27.5 °F 22% 30.07 in 10.0 mi West 6.9 mph - N/A   Overcast
6:55 PM 67.3 °F - 26.2 °F 21% 30.07 in 10.0 mi West 9.2 mph - N/A   Mostly Cloudy
7:15 PM 68.2 °F - 23.7 °F 19% 30.07 in 10.0 mi West 5.8 mph - N/A   Scattered Clouds
7:35 PM 68.0 °F - 24.3 °F 19% 30.09 in 10.0 mi Calm Calm - N/A   Clear
7:55 PM 66.9 °F - 26.1 °F 21% 30.09 in 10.0 mi East 3.5 mph - N/A   Scattered Clouds
8:15 PM 66.2 °F - 25.7 °F 22% 30.11 in 10.0 mi East 5.8 mph - N/A   Scattered Clouds
8:35 PM 64.6 °F - 27.5 °F 25% 30.12 in 10.0 mi East 5.8 mph - N/A   Mostly Cloudy
8:55 PM 63.7 °F - 27.7 °F 26% 30.13 in 10.0 mi East 4.6 mph - N/A   Scattered Clouds
9:15 PM 63.7 °F - 28.4 °F 26% 30.15 in 10.0 mi ESE 8.1 mph - N/A   Mostly Cloudy
9:35 PM 64.0 °F - 27.9 °F 26% 30.15 in 10.0 mi East 3.5 mph - N/A   Overcast
9:55 PM 62.4 °F - 28.4 °F 28% 30.16 in 10.0 mi ESE 5.8 mph - N/A   Overcast
10:15 PM 60.8 °F - 28.6 °F 29% 30.16 in 10.0 mi East 6.9 mph - N/A   Mostly Cloudy
10:35 PM 60.4 °F - 28.2 °F 29% 30.17 in 10.0 mi ESE 6.9 mph - N/A   Clear
10:55 PM 59.0 °F - 28.4 °F 31% 30.17 in 10.0 mi Calm Calm - N/A   Clear
11:15 PM 58.8 °F - 29.7 °F 33% 30.17 in 10.0 mi Calm Calm - N/A   Clear
11:35 PM 57.4 °F - 30.9 °F 37% 30.18 in 10.0 mi North 4.6 mph - N/A   Clear
11:55 PM 56.7 °F - 31.8 °F 39% 30.18 in 10.0 mi NNW 11.5 mph - N/A   Scattered Clouds